| time (UTC) | temp F | wind direction | speed MPH | gust MPH | rain 1hr in | rain 24hr in | rain mn in | humidity % | barometer mb |
| 20260905114605 | 49 | 0 | 0.0 | 0.0 | 0.00 | 0.58 | 0.00 | 99 | 1017.1 |
| 20260905113105 | 48 | 0 | 0.0 | 0.0 | 0.00 | 0.58 | 0.00 | 99 | 1016.8 |
| 20260905111613 | 48 | 0 | 0.0 | 0.0 | 0.00 | 0.58 | 0.00 | 99 | 1016.9 |
| 20260905110101 | 48 | 0 | 0.0 | 0.0 | 0.00 | 0.58 | 0.00 | 99 | 1016.9 |
| 20260905104601 | 48 | 0 | 0.0 | 1.0 | 0.00 | 0.58 | 0.00 | 99 | 1016.9 |
| 20260905103102 | 48 | 0 | 0.0 | 0.0 | 0.00 | 0.58 | 0.00 | 99 | 1017.0 |
| 20260905101605 | 48 | 0 | 0.0 | 0.0 | 0.00 | 0.58 | 0.00 | 99 | 1016.9 |
| 20260905094601 | 48 | 0 | 0.0 | 0.0 | 0.00 | 0.58 | 0.00 | 99 | 1017.0 |
| 20260905093101 | 49 | 0 | 0.0 | 0.0 | 0.00 | 0.58 | 0.00 | 99 | 1017.0 |
| 20260905091606 | 49 | 0 | 0.0 | 0.0 | 0.00 | 0.58 | 0.00 | 99 | 1016.8 |
| 20260905090059 | 49 | 0 | 0.0 | 0.0 | 0.00 | 0.58 | 0.00 | 99 | 1016.8 |
| 20260905084616 | 50 | 0 | 0.0 | 0.0 | 0.00 | 0.58 | 0.00 | 99 | 1016.6 |
| 20260905083102 | 50 | 0 | 0.0 | 0.0 | 0.00 | 0.58 | 0.00 | 99 | 1016.6 |
| 20260905081603 | 50 | 0 | 0.0 | 0.0 | 0.00 | 0.58 | 0.00 | 99 | 1016.6 |
| 20260905080059 | 50 | 0 | 0.0 | 0.0 | 0.00 | 0.58 | 0.00 | 99 | 1016.7 |
| 20260905074603 | 51 | 0 | 0.0 | 0.0 | 0.00 | 0.58 | 0.00 | 99 | 1016.6 |
| 20260905073106 | 51 | 0 | 0.0 | 1.0 | 0.00 | 0.58 | 0.00 | 99 | 1016.6 |
| 20260905071601 | 51 | 0 | 0.0 | 0.0 | 0.00 | 0.58 | 0.00 | 99 | 1016.4 |
| 20260905070105 | 51 | 0 | 0.0 | 0.0 | 0.00 | 0.58 | 0.00 | 99 | 1016.5 |
| 20260905064555 | 51 | 0 | 0.0 | 0.0 | 0.00 | 0.60 | 0.58 | 99 | 1016.2 |
| 20260905063104 | 50 | 0 | 0.0 | 2.0 | 0.00 | 0.60 | 0.58 | 99 | 1016.2 |
| 20260905061604 | 50 | 0 | 0.0 | 1.0 | 0.00 | 0.60 | 0.58 | 99 | 1016.2 |
| 20260905060101 | 50 | 0 | 0.0 | 1.0 | 0.00 | 0.60 | 0.58 | 99 | 1016.0 |
| 20260905054558 | 50 | 0 | 0.0 | 0.0 | 0.00 | 0.60 | 0.58 | 99 | 1016.2 |
| 20260905053141 | 51 | 0 | 0.0 | 1.0 | 0.00 | 0.60 | 0.58 | 99 | 1016.2 |
| 20260905051601 | 51 | 0 | 0.0 | 0.0 | 0.00 | 0.60 | 0.58 | 99 | 1016.0 |
| 20260905044559 | 51 | 0 | 0.0 | 1.0 | 0.00 | 0.60 | 0.58 | 99 | 1015.8 |
| 20260905043100 | 51 | 0 | 0.0 | 1.0 | 0.00 | 0.60 | 0.58 | 99 | 1015.9 |
| 20260905041601 | 51 | 0 | 0.0 | 0.0 | 0.00 | 0.60 | 0.58 | 98 | 1015.9 |
| 20260905040103 | 52 | 0 | 0.0 | 0.0 | 0.00 | 0.60 | 0.58 | 99 | 1015.7 |
| 20260905034605 | 52 | 0 | 0.0 | 0.0 | 0.00 | 0.60 | 0.58 | 98 | 1015.5 |
| 20260905033106 | 52 | 0 | 0.0 | 0.0 | 0.00 | 0.60 | 0.58 | 98 | 1015.4 |
| 20260905031559 | 52 | 0 | 0.0 | 1.0 | 0.00 | 0.60 | 0.58 | 98 | 1015.3 |
| 20260905024621 | 53 | 0 | 0.0 | 0.0 | 0.00 | 0.60 | 0.58 | 98 | 1015.3 |
| 20260905023123 | 54 | 0 | 0.0 | 2.0 | 0.00 | 0.60 | 0.58 | 98 | 1015.4 |
| 20260905021605 | 54 | 0 | 0.0 | 0.0 | 0.00 | 0.60 | 0.58 | 98 | 1015.4 |
| 20260905020108 | 54 | 0 | 0.0 | 1.0 | 0.00 | 0.60 | 0.58 | 98 | 1015.3 |
| 20260905014601 | 54 | 0 | 0.0 | 2.0 | 0.00 | 0.60 | 0.58 | 98 | 1015.1 |
| 20260905013104 | 54 | 0 | 0.0 | 2.0 | 0.00 | 0.60 | 0.58 | 97 | 1014.9 |
| 20260905011621 | 55 | 0 | 0.0 | 1.0 | 0.00 | 0.60 | 0.58 | 97 | 1014.9 |
| 20260905010058 | 56 | 0 | 0.0 | 1.0 | 0.00 | 0.60 | 0.58 | 98 | 1014.5 |
| 20260905004600 | 57 | 0 | 0.0 | 0.0 | 0.00 | 0.61 | 0.58 | 99 | 1014.6 |
| 20260905003102 | 56 | 0 | 0.0 | 0.0 | 0.01 | 0.61 | 0.58 | 99 | 1014.6 |
| 20260905001603 | 56 | 0 | 0.0 | 0.0 | 0.01 | 0.61 | 0.58 | 99 | 1014.6 |
| 20260905000114 | 55 | 0 | 0.0 | 0.0 | 0.02 | 0.61 | 0.58 | 99 | 1014.7 |
| 20260904234600 | 55 | 0 | 0.0 | 0.0 | 0.03 | 0.67 | 0.58 | 99 | 1014.6 |
| 20260904233102 | 54 | 0 | 0.0 | 0.0 | 0.04 | 0.66 | 0.58 | 99 | 1014.5 |
| 20260904231603 | 53 | 0 | 0.0 | 1.0 | 0.09 | 0.66 | 0.58 | 99 | 1014.6 |
| 20260904230108 | 53 | 0 | 0.0 | 2.0 | 0.12 | 0.65 | 0.57 | 98 | 1014.4 |
| 20260904224609 | 53 | 114 | 1.0 | 6.0 | 0.24 | 0.64 | 0.56 | 98 | 1014.5 |
| 20260904223106 | 53 | 117 | 3.0 | 6.0 | 0.46 | 0.61 | 0.52 | 97 | 1014.5 |
| 20260904221604 | 53 | 0 | 0.0 | 2.0 | 0.42 | 0.57 | 0.49 | 96 | 1014.2 |
| 20260904214607 | 55 | 136 | 7.0 | 16.0 | 0.24 | 0.41 | 0.31 | 93 | 1014.9 |
| 20260904213104 | 58 | 0 | 0.0 | 3.0 | 0.00 | 0.17 | 0.07 | 94 | 1013.9 |
| 20260904211603 | 59 | 0 | 0.0 | 4.0 | 0.00 | 0.17 | 0.07 | 91 | 1013.4 |
| 20260904210104 | 59 | 336 | 0.0 | 2.0 | 0.00 | 0.17 | 0.07 | 88 | 1013.3 |
| 20260904204608 | 60 | 336 | 1.0 | 5.0 | 0.00 | 0.17 | 0.07 | 84 | 1013.1 |
| 20260904203105 | 60 | 328 | 1.0 | 5.0 | 0.00 | 0.17 | 0.07 | 86 | 1013.0 |
| 20260904201636 | 62 | 288 | 2.0 | 9.0 | 0.00 | 0.17 | 0.07 | 85 | 1013.1 |
| 20260904200121 | 60 | 352 | 3.0 | 8.0 | 0.00 | 0.17 | 0.07 | 85 | 1013.2 |
| 20260904194613 | 59 | 346 | 2.0 | 4.0 | 0.00 | 0.22 | 0.07 | 89 | 1013.5 |
| 20260904193111 | 58 | 345 | 2.0 | 5.0 | 0.00 | 0.22 | 0.07 | 93 | 1013.4 |
| 20260904191603 | 57 | 351 | 2.0 | 5.0 | 0.00 | 0.22 | 0.07 | 93 | 1013.5 |
| 20260904190108 | 57 | 340 | 2.0 | 4.0 | 0.00 | 0.22 | 0.07 | 92 | 1013.4 |
| 20260904184605 | 57 | 333 | 1.0 | 4.0 | 0.00 | 0.22 | 0.07 | 98 | 1013.3 |
| 20260904183104 | 55 | 340 | 0.0 | 4.0 | 0.00 | 0.22 | 0.07 | 98 | 1013.3 |
| 20260904181600 | 55 | 348 | 3.0 | 6.0 | 0.00 | 0.22 | 0.07 | 99 | 1013.2 |
| 20260904180104 | 55 | 343 | 2.0 | 4.0 | 0.01 | 0.22 | 0.07 | 99 | 1013.1 |
| 20260904174602 | 54 | 360 | 1.0 | 4.0 | 0.01 | 0.22 | 0.07 | 100 | 1013.1 |
| 20260904173130 | 54 | 0 | 0.0 | 1.0 | 0.01 | 0.22 | 0.07 | 100 | 1013.1 |
| 20260904171611 | 54 | 0 | 0.0 | 2.0 | 0.00 | 0.21 | 0.06 | 99 | 1013.0 |
| 20260904164600 | 52 | 0 | 0.0 | 0.0 | 0.00 | 0.23 | 0.06 | 99 | 1013.2 |
| 20260904163104 | 52 | 0 | 0.0 | 0.0 | 0.00 | 0.23 | 0.06 | 99 | 1013.0 |
| 20260904161605 | 51 | 0 | 0.0 | 0.0 | 0.00 | 0.23 | 0.06 | 99 | 1012.8 |
| 20260904154606 | 51 | 0 | 0.0 | 0.0 | 0.00 | 0.25 | 0.06 | 100 | 1012.9 |
| 20260904153103 | 50 | 0 | 0.0 | 0.0 | 0.00 | 0.25 | 0.06 | 99 | 1012.9 |
| 20260904151615 | 50 | 0 | 0.0 | 0.0 | 0.01 | 0.25 | 0.06 | 99 | 1012.7 |
| 20260904150130 | 50 | 0 | 0.0 | 0.0 | 0.01 | 0.25 | 0.06 | 99 | 1012.4 |
| 20260904144605 | 49 | 0 | 0.0 | 0.0 | 0.01 | 0.25 | 0.06 | 99 | 1012.3 |
| 20260904143113 | 49 | 0 | 0.0 | 0.0 | 0.01 | 0.25 | 0.06 | 99 | 1012.3 |
| 20260904141617 | 49 | 0 | 0.0 | 0.0 | 0.00 | 0.24 | 0.05 | 99 | 1012.2 |
| 20260904140107 | 49 | 0 | 0.0 | 0.0 | 0.00 | 0.24 | 0.05 | 99 | 1012.1 |
| 20260904134625 | 48 | 0 | 0.0 | 0.0 | 0.00 | 0.24 | 0.05 | 99 | 1012.0 |
| 20260904133105 | 48 | 0 | 0.0 | 0.0 | 0.01 | 0.24 | 0.05 | 99 | 1011.7 |
| 20260904131559 | 48 | 0 | 0.0 | 0.0 | 0.02 | 0.24 | 0.05 | 99 | 1011.5 |
| 20260904130058 | 48 | 0 | 0.0 | 0.0 | 0.03 | 0.24 | 0.05 | 99 | 1011.4 |
| 20260904124557 | 48 | 0 | 0.0 | 0.0 | 0.03 | 0.24 | 0.05 | 99 | 1011.2 |
| 20260904123107 | 48 | 0 | 0.0 | 0.0 | 0.03 | 0.23 | 0.04 | 99 | 1011.2 |
| 20260904121602 | 48 | 0 | 0.0 | 0.0 | 0.02 | 0.22 | 0.03 | 99 | 1011.3 |
| 20260904120108 | 48 | 0 | 0.0 | 0.0 | 0.01 | 0.21 | 0.02 | 99 | 1011.2 |